Data supplied by UK-AIR on 3/5/2024
All Data GMT hour ending 
Status: R =Ratified P=Provisional,P*=As supplied
,,Belfast Stockman's Lane,,,,,,,,,,,,,,,,,,,,,,,
Date,time,"PM<sub>10</sub> particulate matter (Hourly measured)",status,unit,"Nitric oxide",status,unit,"Nitrogen dioxide",status,unit,"Nitrogen oxides as nitrogen dioxide",status,unit
 
01-01-2024,01:00,9.662,P,ugm-3 (Ref.eq),2.32440,P,ugm-3,5.37170,P,ugm-3,8.93574,P,ugm-3
01-01-2024,02:00,7.730,P,ugm-3 (Ref.eq),9.34505,P,ugm-3,10.22625,P,ugm-3,24.55512,P,ugm-3
01-01-2024,03:00,5.797,P,ugm-3 (Ref.eq),2.73948,P,ugm-3,5.44359,P,ugm-3,9.64406,P,ugm-3
01-01-2024,04:00,5.797,P,ugm-3 (Ref.eq),2.38370,P,ugm-3,4.19106,P,ugm-3,7.84601,P,ugm-3
01-01-2024,05:00,5.797,P,ugm-3 (Ref.eq),1.63657,P,ugm-3,6.09945,P,ugm-3,8.60882,P,ugm-3
01-01-2024,06:00,3.865,P,ugm-3 (Ref.eq),1.24522,P,ugm-3,0.70603,P,ugm-3,2.61534,P,ugm-3
01-01-2024,07:00,6.763,P,ugm-3 (Ref.eq),0.78271,P,ugm-3,2.66839,P,ugm-3,3.86852,P,ugm-3
01-01-2024,08:00,4.831,P,ugm-3 (Ref.eq),12.16754,P,ugm-3,12.01911,P,ugm-3,30.67573,P,ugm-3
01-01-2024,09:00,8.696,P,ugm-3 (Ref.eq),10.78001,P,ugm-3,20.73945,P,ugm-3,37.26856,P,ugm-3
01-01-2024,10:00,9.662,P,ugm-3 (Ref.eq),23.19659,P,ugm-3,28.61714,P,ugm-3,64.18475,P,ugm-3
01-01-2024,11:00,13.527,P,ugm-3 (Ref.eq),22.62735,P,ugm-3,29.16305,P,ugm-3,63.85783,P,ugm-3
01-01-2024,12:00,12.561,P,ugm-3 (Ref.eq),32.62465,P,ugm-3,35.62855,P,ugm-3,85.65232,P,ugm-3
01-01-2024,13:00,23.189,P,ugm-3 (Ref.eq),87.30741,P,ugm-3,67.67498,P,ugm-3,201.54447,P,ugm-3
01-01-2024,14:00,22.223,P,ugm-3 (Ref.eq),81.54384,P,ugm-3,67.03173,P,ugm-3,192.06387,P,ugm-3
01-01-2024,15:00,24.155,P,ugm-3 (Ref.eq),90.01130,P,ugm-3,73.11864,P,ugm-3,211.13404,P,ugm-3
01-01-2024,16:00,24.155,P,ugm-3 (Ref.eq),77.98608,P,ugm-3,70.30744,P,ugm-3,189.88443,P,ugm-3
01-01-2024,17:00,11.594,P,ugm-3 (Ref.eq),22.94755,P,ugm-3,29.05349,P,ugm-3,64.23924,P,ugm-3
01-01-2024,18:00,11.594,P,ugm-3 (Ref.eq),10.28192,P,ugm-3,21.06728,P,ugm-3,36.83268,P,ugm-3
01-01-2024,19:00,13.527,P,ugm-3 (Ref.eq),5.76357,P,ugm-3,8.43478,P,ugm-3,17.27213,P,ugm-3
01-01-2024,20:00,12.561,P,ugm-3 (Ref.eq),8.28958,P,ugm-3,10.33715,P,ugm-3,23.04767,P,ugm-3
01-01-2024,21:00,15.459,P,ugm-3 (Ref.eq),5.47895,P,ugm-3,9.14362,P,ugm-3,17.54456,P,ugm-3
01-01-2024,22:00,7.730,P,ugm-3 (Ref.eq),5.08760,P,ugm-3,6.91040,P,ugm-3,14.71128,P,ugm-3
01-01-2024,23:00,6.763,P,ugm-3 (Ref.eq),4.87413,P,ugm-3,9.79857,P,ugm-3,17.27213,P,ugm-3
01-01-2024,24:00,6.763,P,ugm-3 (Ref.eq),11.24252,P,ugm-3,25.31544,P,ugm-3,42.55373,P,ugm-3
02-01-2024,01:00,10.628,P,ugm-3 (Ref.eq),1.66107,P,ugm-3,3.70580,P,ugm-3,6.25273,P,ugm-3
02-01-2024,02:00,19.324,P,ugm-3 (Ref.eq),3.74927,P,ugm-3,4.50278,P,ugm-3,10.25157,P,ugm-3
02-01-2024,03:00,18.358,P,ugm-3 (Ref.eq),1.21021,P,ugm-3,2.67034,P,ugm-3,4.52596,P,ugm-3
02-01-2024,04:00,25.121,P,ugm-3 (Ref.eq),1.35258,P,ugm-3,3.26997,P,ugm-3,5.34391,P,ugm-3
02-01-2024,05:00,25.121,P,ugm-3 (Ref.eq),2.20685,P,ugm-3,6.59514,P,ugm-3,9.97892,P,ugm-3
02-01-2024,06:00,21.256,P,ugm-3 (Ref.eq),15.98185,P,ugm-3,35.96822,P,ugm-3,60.47337,P,ugm-3
02-01-2024,07:00,19.324,P,ugm-3 (Ref.eq),30.07719,P,ugm-3,35.73127,P,ugm-3,81.84899,P,ugm-3
02-01-2024,08:00,21.256,P,ugm-3 (Ref.eq),72.71918,P,ugm-3,64.68409,P,ugm-3,176.18528,P,ugm-3
02-01-2024,09:00,23.189,P,ugm-3 (Ref.eq),79.16175,P,ugm-3,60.42218,P,ugm-3,181.80183,P,ugm-3
02-01-2024,10:00,23.189,P,ugm-3 (Ref.eq),105.46594,P,ugm-3,75.05552,P,ugm-3,236.76771,P,ugm-3
02-01-2024,11:00,30.918,P,ugm-3 (Ref.eq),162.59481,P,ugm-3,82.83148,P,ugm-3,332.14005,P,ugm-3
02-01-2024,12:00,32.851,P,ugm-3 (Ref.eq),208.86742,P,ugm-3,96.02039,P,ugm-3,416.27929,P,ugm-3
02-01-2024,13:00,25.121,P,ugm-3 (Ref.eq),131.66336,P,ugm-3,65.15066,P,ugm-3,267.03166,P,ugm-3
02-01-2024,14:00,24.155,P,ugm-3 (Ref.eq),70.47674,P,ugm-3,55.85329,P,ugm-3,163.91611,P,ugm-3
02-01-2024,15:00,24.155,P,ugm-3 (Ref.eq),109.66607,P,ugm-3,63.16245,P,ugm-3,231.31474,P,ugm-3
02-01-2024,16:00,25.121,P,ugm-3 (Ref.eq),126.43099,P,ugm-3,69.68361,P,ugm-3,263.54176,P,ugm-3
02-01-2024,17:00,30.918,P,ugm-3 (Ref.eq),91.76213,P,ugm-3,62.20482,P,ugm-3,202.90480,P,ugm-3
02-01-2024,18:00,24.155,P,ugm-3 (Ref.eq),46.77093,P,ugm-3,51.79522,P,ugm-3,123.50964,P,ugm-3
02-01-2024,19:00,17.392,P,ugm-3 (Ref.eq),25.98385,P,ugm-3,38.57228,P,ugm-3,78.41363,P,ugm-3
02-01-2024,20:00,11.594,P,ugm-3 (Ref.eq),25.20077,P,ugm-3,30.06671,P,ugm-3,68.70735,P,ugm-3
02-01-2024,21:00,12.561,P,ugm-3 (Ref.eq),12.20885,P,ugm-3,19.06907,P,ugm-3,37.78904,P,ugm-3
02-01-2024,22:00,9.662,P,ugm-3 (Ref.eq),8.25788,P,ugm-3,17.76564,P,ugm-3,30.42754,P,ugm-3
02-01-2024,23:00,6.763,P,ugm-3 (Ref.eq),13.91738,P,ugm-3,13.55929,P,ugm-3,34.89897,P,ugm-3
02-01-2024,24:00,13.527,P,ugm-3 (Ref.eq),3.34587,P,ugm-3,10.30163,P,ugm-3,15.43189,P,ugm-3
03-01-2024,01:00,9.662,P,ugm-3 (Ref.eq),18.37529,P,ugm-3,17.73910,P,ugm-3,45.91415,P,ugm-3
03-01-2024,02:00,11.594,P,ugm-3 (Ref.eq),5.41288,P,ugm-3,11.49221,P,ugm-3,19.79184,P,ugm-3
03-01-2024,03:00,13.527,P,ugm-3 (Ref.eq),1.67372,P,ugm-3,11.45895,P,ugm-3,14.02528,P,ugm-3
03-01-2024,04:00,11.594,P,ugm-3 (Ref.eq),6.69487,P,ugm-3,14.01969,P,ugm-3,24.28502,P,ugm-3
03-01-2024,05:00,12.561,P,ugm-3 (Ref.eq),8.68909,P,ugm-3,11.94425,P,ugm-3,25.26734,P,ugm-3
03-01-2024,06:00,14.493,P,ugm-3 (Ref.eq),7.30026,P,ugm-3,11.07224,P,ugm-3,22.26582,P,ugm-3
03-01-2024,07:00,11.594,P,ugm-3 (Ref.eq),39.88436,P,ugm-3,41.16937,P,ugm-3,102.32453,P,ugm-3
03-01-2024,08:00,14.493,P,ugm-3 (Ref.eq),60.75242,P,ugm-3,51.84826,P,ugm-3,145.00067,P,ugm-3
03-01-2024,09:00,16.425,P,ugm-3 (Ref.eq),96.71956,P,ugm-3,53.12798,P,ugm-3,201.42924,P,ugm-3
03-01-2024,10:00,11.594,P,ugm-3 (Ref.eq),56.94204,P,ugm-3,55.72613,P,ugm-3,143.03604,P,ugm-3
03-01-2024,11:00,13.527,P,ugm-3 (Ref.eq),51.88527,P,ugm-3,38.86728,P,ugm-3,118.42358,P,ugm-3
03-01-2024,12:00,16.425,P,ugm-3 (Ref.eq),52.59749,P,ugm-3,41.43161,P,ugm-3,122.07998,P,ugm-3
03-01-2024,13:00,14.493,P,ugm-3 (Ref.eq),68.01707,P,ugm-3,48.73153,P,ugm-3,153.02292,P,ugm-3
03-01-2024,14:00,15.459,P,ugm-3 (Ref.eq),83.89959,P,ugm-3,58.86886,P,ugm-3,187.51310,P,ugm-3
03-01-2024,15:00,10.628,P,ugm-3 (Ref.eq),88.67147,P,ugm-3,51.33379,P,ugm-3,187.29481,P,ugm-3
03-01-2024,16:00,14.493,P,ugm-3 (Ref.eq),109.18342,P,ugm-3,69.59864,P,ugm-3,237.01089,P,ugm-3
03-01-2024,17:00,16.425,P,ugm-3 (Ref.eq),138.59814,P,ugm-3,77.70546,P,ugm-3,290.21964,P,ugm-3
03-01-2024,18:00,14.493,P,ugm-3 (Ref.eq),93.01601,P,ugm-3,80.03560,P,ugm-3,222.65817,P,ugm-3
03-01-2024,19:00,18.358,P,ugm-3 (Ref.eq),73.28750,P,ugm-3,61.87924,P,ugm-3,174.25185,P,ugm-3
03-01-2024,20:00,24.155,P,ugm-3 (Ref.eq),65.20380,P,ugm-3,55.33722,P,ugm-3,155.31499,P,ugm-3
03-01-2024,21:00,19.324,P,ugm-3 (Ref.eq),49.92667,P,ugm-3,58.24235,P,ugm-3,134.79551,P,ugm-3
03-01-2024,22:00,13.527,P,ugm-3 (Ref.eq),20.54757,P,ugm-3,28.90657,P,ugm-3,60.41240,P,ugm-3
03-01-2024,23:00,10.628,P,ugm-3 (Ref.eq),15.70447,P,ugm-3,21.48868,P,ugm-3,45.56852,P,ugm-3
03-01-2024,24:00,9.662,P,ugm-3 (Ref.eq),5.59093,P,ugm-3,11.94684,P,ugm-3,20.51948,P,ugm-3
04-01-2024,01:00,8.696,P,ugm-3 (Ref.eq),6.12797,P,ugm-3,16.01879,P,ugm-3,25.41489,P,ugm-3
04-01-2024,02:00,9.662,P,ugm-3 (Ref.eq),4.51285,P,ugm-3,5.16885,P,ugm-3,12.08846,P,ugm-3
04-01-2024,03:00,8.696,P,ugm-3 (Ref.eq),5.34416,P,ugm-3,9.93842,P,ugm-3,18.13268,P,ugm-3
04-01-2024,04:00,9.662,P,ugm-3 (Ref.eq),1.38948,P,ugm-3,5.40657,P,ugm-3,7.53708,P,ugm-3
04-01-2024,05:00,5.797,P,ugm-3 (Ref.eq),1.24697,P,ugm-3,3.87736,P,ugm-3,5.78935,P,ugm-3
04-01-2024,06:00,2.899,P,ugm-3 (Ref.eq),4.63161,P,ugm-3,11.08560,P,ugm-3,18.18730,P,ugm-3
04-01-2024,07:00,6.763,P,ugm-3 (Ref.eq),21.30540,P,ugm-3,21.51177,P,ugm-3,54.17959,P,ugm-3
04-01-2024,08:00,11.594,P,ugm-3 (Ref.eq),59.99713,P,ugm-3,48.37013,P,ugm-3,140.36445,P,ugm-3
04-01-2024,09:00,11.594,P,ugm-3 (Ref.eq),62.34857,P,ugm-3,46.23930,P,ugm-3,141.83910,P,ugm-3
04-01-2024,10:00,17.392,P,ugm-3 (Ref.eq),87.85804,P,ugm-3,69.71585,P,ugm-3,204.42963,P,ugm-3
04-01-2024,11:00,12.561,P,ugm-3 (Ref.eq),42.89581,P,ugm-3,35.54098,P,ugm-3,101.31364,P,ugm-3
04-01-2024,12:00,28.020,P,ugm-3 (Ref.eq),49.20193,P,ugm-3,41.10975,P,ugm-3,116.55165,P,ugm-3
04-01-2024,13:00,21.256,P,ugm-3 (Ref.eq),48.23998,P,ugm-3,38.65233,P,ugm-3,112.61926,P,ugm-3
04-01-2024,14:00,26.087,P,ugm-3 (Ref.eq),79.91305,P,ugm-3,61.30757,P,ugm-3,183.83920,P,ugm-3
04-01-2024,15:00,25.121,P,ugm-3 (Ref.eq),94.73419,P,ugm-3,61.46645,P,ugm-3,206.72352,P,ugm-3
04-01-2024,16:00,28.986,P,ugm-3 (Ref.eq),160.53865,P,ugm-3,83.50947,P,ugm-3,329.66530,P,ugm-3
04-01-2024,17:00,37.682,P,ugm-3 (Ref.eq),190.00280,P,ugm-3,91.63746,P,ugm-3,382.97102,P,ugm-3
04-01-2024,18:00,42.513,P,ugm-3 (Ref.eq),229.44273,P,ugm-3,95.50201,P,ugm-3,447.30928,P,ugm-3
04-01-2024,19:00,46.378,P,ugm-3 (Ref.eq),131.92957,P,ugm-3,74.88965,P,ugm-3,277.17883,P,ugm-3
04-01-2024,20:00,42.513,P,ugm-3 (Ref.eq),78.20292,P,ugm-3,59.72426,P,ugm-3,179.63373,P,ugm-3
04-01-2024,21:00,26.087,P,ugm-3 (Ref.eq),31.70870,P,ugm-3,40.51483,P,ugm-3,89.13416,P,ugm-3
04-01-2024,22:00,26.087,P,ugm-3 (Ref.eq),13.96608,P,ugm-3,28.72361,P,ugm-3,50.13796,P,ugm-3
04-01-2024,23:00,24.155,P,ugm-3 (Ref.eq),32.45688,P,ugm-3,48.21551,P,ugm-3,97.98203,P,ugm-3
04-01-2024,24:00,19.324,P,ugm-3 (Ref.eq),14.82115,P,ugm-3,28.99640,P,ugm-3,51.72184,P,ugm-3
05-01-2024,01:00,18.358,P,ugm-3 (Ref.eq),12.02407,P,ugm-3,21.42868,P,ugm-3,39.86533,P,ugm-3
05-01-2024,02:00,23.189,P,ugm-3 (Ref.eq),9.55272,P,ugm-3,15.08772,P,ugm-3,29.73502,P,ugm-3
05-01-2024,03:00,10.628,P,ugm-3 (Ref.eq),13.22410,P,ugm-3,20.49966,P,ugm-3,40.77633,P,ugm-3
05-01-2024,04:00,10.628,P,ugm-3 (Ref.eq),13.61619,P,ugm-3,15.36169,P,ugm-3,36.23955,P,ugm-3
05-01-2024,05:00,11.594,P,ugm-3 (Ref.eq),11.97654,P,ugm-3,16.07200,P,ugm-3,34.43577,P,ugm-3
05-01-2024,06:00,8.696,P,ugm-3 (Ref.eq),14.40037,P,ugm-3,15.79909,P,ugm-3,37.87935,P,ugm-3
05-01-2024,07:00,11.594,P,ugm-3 (Ref.eq),53.18155,P,ugm-3,35.59237,P,ugm-3,117.13628,P,ugm-3
05-01-2024,08:00,16.425,P,ugm-3 (Ref.eq),135.44900,P,ugm-3,74.30514,P,ugm-3,281.99071,P,ugm-3
05-01-2024,09:00,14.493,P,ugm-3 (Ref.eq),112.38702,P,ugm-3,72.44291,P,ugm-3,244.76728,P,ugm-3
05-01-2024,10:00,14.493,P,ugm-3 (Ref.eq),92.10532,P,ugm-3,70.96376,P,ugm-3,212.18995,P,ugm-3
05-01-2024,11:00,17.392,P,ugm-3 (Ref.eq),98.34310,P,ugm-3,69.76227,P,ugm-3,220.55292,P,ugm-3
05-01-2024,12:00,17.392,P,ugm-3 (Ref.eq),95.49154,P,ugm-3,67.30210,P,ugm-3,213.72043,P,ugm-3
05-01-2024,13:00,15.459,P,ugm-3 (Ref.eq),91.78452,P,ugm-3,71.23701,P,ugm-3,211.97131,P,ugm-3
05-01-2024,14:00,17.392,P,ugm-3 (Ref.eq),99.26986,P,ugm-3,66.59214,P,ugm-3,218.80380,P,ugm-3
05-01-2024,15:00,17.392,P,ugm-3 (Ref.eq),102.40657,P,ugm-3,68.50576,P,ugm-3,225.52698,P,ugm-3
05-01-2024,16:00,25.121,P,ugm-3 (Ref.eq),114.45440,P,ugm-3,81.51681,P,ugm-3,257.01111,P,ugm-3
05-01-2024,17:00,20.290,P,ugm-3 (Ref.eq),89.96665,P,ugm-3,79.16241,P,ugm-3,217.10934,P,ugm-3
05-01-2024,18:00,19.324,P,ugm-3 (Ref.eq),101.80062,P,ugm-3,74.35427,P,ugm-3,230.44637,P,ugm-3
05-01-2024,19:00,20.290,P,ugm-3 (Ref.eq),95.77670,P,ugm-3,76.59434,P,ugm-3,223.44990,P,ugm-3
05-01-2024,20:00,19.324,P,ugm-3 (Ref.eq),67.26112,P,ugm-3,61.83147,P,ugm-3,164.96375,P,ugm-3
05-01-2024,21:00,19.324,P,ugm-3 (Ref.eq),46.01701,P,ugm-3,61.66399,P,ugm-3,132.22243,P,ugm-3
05-01-2024,22:00,19.324,P,ugm-3 (Ref.eq),45.55364,P,ugm-3,49.91203,P,ugm-3,119.75996,P,ugm-3
05-01-2024,23:00,24.155,P,ugm-3 (Ref.eq),27.16109,P,ugm-3,44.38835,P,ugm-3,86.03477,P,ugm-3
05-01-2024,24:00,18.358,P,ugm-3 (Ref.eq),33.47016,P,ugm-3,38.15815,P,ugm-3,89.47835,P,ugm-3
06-01-2024,01:00,15.459,P,ugm-3 (Ref.eq),24.15452,P,ugm-3,38.96484,P,ugm-3,76.00125,P,ugm-3
06-01-2024,02:00,10.628,P,ugm-3 (Ref.eq),15.21544,P,ugm-3,35.02027,P,ugm-3,58.35029,P,ugm-3
06-01-2024,03:00,10.628,P,ugm-3 (Ref.eq),4.77860,P,ugm-3,15.10131,P,ugm-3,22.42839,P,ugm-3
06-01-2024,04:00,9.662,P,ugm-3 (Ref.eq),8.27340,P,ugm-3,14.55659,P,ugm-3,27.24229,P,ugm-3
06-01-2024,05:00,12.561,P,ugm-3 (Ref.eq),6.52600,P,ugm-3,15.43069,P,ugm-3,25.43708,P,ugm-3
06-01-2024,06:00,10.628,P,ugm-3 (Ref.eq),23.78602,P,ugm-3,24.74171,P,ugm-3,61.21310,P,ugm-3
06-01-2024,07:00,8.696,P,ugm-3 (Ref.eq),15.76225,P,ugm-3,22.43885,P,ugm-3,46.60729,P,ugm-3
06-01-2024,08:00,13.527,P,ugm-3 (Ref.eq),51.92270,P,ugm-3,48.00932,P,ugm-3,127.62302,P,ugm-3
06-01-2024,09:00,14.493,P,ugm-3 (Ref.eq),85.08761,P,ugm-3,63.45768,P,ugm-3,193.92353,P,ugm-3
06-01-2024,10:00,10.628,P,ugm-3 (Ref.eq),87.47691,P,ugm-3,61.87287,P,ugm-3,196.00226,P,ugm-3
06-01-2024,11:00,14.493,P,ugm-3 (Ref.eq),87.54823,P,ugm-3,66.13978,P,ugm-3,200.37853,P,ugm-3
06-01-2024,12:00,20.290,P,ugm-3 (Ref.eq),85.30158,P,ugm-3,69.36579,P,ugm-3,200.15972,P,ugm-3
06-01-2024,13:00,19.324,P,ugm-3 (Ref.eq),87.33426,P,ugm-3,61.54455,P,ugm-3,195.45522,P,ugm-3
06-01-2024,14:00,12.561,P,ugm-3 (Ref.eq),95.25105,P,ugm-3,63.95676,P,ugm-3,210.00633,P,ugm-3
06-01-2024,15:00,16.425,P,ugm-3 (Ref.eq),119.39368,P,ugm-3,76.93748,P,ugm-3,260.00523,P,ugm-3
06-01-2024,16:00,22.223,P,ugm-3 (Ref.eq),154.09202,P,ugm-3,84.40016,P,ugm-3,320.67129,P,ugm-3
06-01-2024,17:00,21.256,P,ugm-3 (Ref.eq),152.13065,P,ugm-3,83.14068,P,ugm-3,316.40443,P,ugm-3
06-01-2024,18:00,31.885,P,ugm-3 (Ref.eq),174.66853,P,ugm-3,93.33046,P,ugm-3,361.15180,P,ugm-3
06-01-2024,19:00,29.952,P,ugm-3 (Ref.eq),106.44866,P,ugm-3,75.01427,P,ugm-3,238.23328,P,ugm-3
06-01-2024,20:00,28.020,P,ugm-3 (Ref.eq),109.37288,P,ugm-3,85.24574,P,ugm-3,252.94849,P,ugm-3
06-01-2024,21:00,36.716,P,ugm-3 (Ref.eq),104.20201,P,ugm-3,73.26227,P,ugm-3,233.03645,P,ugm-3
06-01-2024,22:00,28.986,P,ugm-3 (Ref.eq),69.93160,P,ugm-3,59.34487,P,ugm-3,166.57183,P,ugm-3
06-01-2024,23:00,11.594,P,ugm-3 (Ref.eq),27.03119,P,ugm-3,46.78933,P,ugm-3,88.23657,P,ugm-3
06-01-2024,24:00,19.324,P,ugm-3 (Ref.eq),33.45020,P,ugm-3,48.76292,P,ugm-3,100.05251,P,ugm-3
07-01-2024,01:00,30.918,P,ugm-3 (Ref.eq),43.14649,P,ugm-3,42.67967,P,ugm-3,108.83670,P,ugm-3
07-01-2024,02:00,32.851,P,ugm-3 (Ref.eq),42.86107,P,ugm-3,37.27765,P,ugm-3,102.99704,P,ugm-3
07-01-2024,03:00,31.885,P,ugm-3 (Ref.eq),26.29462,P,ugm-3,32.98815,P,ugm-3,73.30601,P,ugm-3
07-01-2024,04:00,33.817,P,ugm-3 (Ref.eq),25.83081,P,ugm-3,28.66261,P,ugm-3,68.26930,P,ugm-3
07-01-2024,05:00,28.020,P,ugm-3 (Ref.eq),10.20388,P,ugm-3,24.53844,P,ugm-3,40.18417,P,ugm-3
07-01-2024,06:00,27.054,P,ugm-3 (Ref.eq),20.26506,P,ugm-3,23.23620,P,ugm-3,54.30886,P,ugm-3
07-01-2024,07:00,25.121,P,ugm-3 (Ref.eq),24.33234,P,ugm-3,26.63524,P,ugm-3,63.94430,P,ugm-3
07-01-2024,08:00,23.189,P,ugm-3 (Ref.eq),41.27935,P,ugm-3,35.25018,P,ugm-3,98.54430,P,ugm-3
07-01-2024,09:00,20.290,P,ugm-3 (Ref.eq),21.40675,P,ugm-3,34.78911,P,ugm-3,67.61234,P,ugm-3
07-01-2024,10:00,20.290,P,ugm-3 (Ref.eq),48.16518,P,ugm-3,41.44457,P,ugm-3,115.29683,P,ugm-3
07-01-2024,11:00,20.290,P,ugm-3 (Ref.eq),48.66468,P,ugm-3,36.18946,P,ugm-3,110.80759,P,ugm-3
07-01-2024,12:00,25.121,P,ugm-3 (Ref.eq),51.12645,P,ugm-3,35.91858,P,ugm-3,114.31138,P,ugm-3
07-01-2024,13:00,27.054,P,ugm-3 (Ref.eq),68.64431,P,ugm-3,44.20571,P,ugm-3,149.45885,P,ugm-3
07-01-2024,14:00,31.885,P,ugm-3 (Ref.eq),109.88798,P,ugm-3,52.57516,P,ugm-3,221.06770,P,ugm-3
07-01-2024,15:00,33.817,P,ugm-3 (Ref.eq),124.65863,P,ugm-3,46.18694,P,ugm-3,237.32751,P,ugm-3
07-01-2024,16:00,39.614,P,ugm-3 (Ref.eq),152.05927,P,ugm-3,58.59156,P,ugm-3,291.74586,P,ugm-3
07-01-2024,17:00,37.682,P,ugm-3 (Ref.eq),142.10513,P,ugm-3,58.03253,P,ugm-3,275.92403,P,ugm-3
07-01-2024,18:00,39.614,P,ugm-3 (Ref.eq),117.70144,P,ugm-3,56.36177,P,ugm-3,236.83479,P,ugm-3
07-01-2024,19:00,50.242,P,ugm-3 (Ref.eq),109.31713,P,ugm-3,56.95424,P,ugm-3,224.57150,P,ugm-3
07-01-2024,20:00,68.600,P,ugm-3 (Ref.eq),128.51185,P,ugm-3,55.77211,P,ugm-3,252.82086,P,ugm-3
07-01-2024,21:00,65.702,P,ugm-3 (Ref.eq),131.90125,P,ugm-3,54.35263,P,ugm-3,256.59839,P,ugm-3
07-01-2024,22:00,81.161,P,ugm-3 (Ref.eq),112.84924,P,ugm-3,51.20993,P,ugm-3,224.24302,P,ugm-3
07-01-2024,23:00,76.330,P,ugm-3 (Ref.eq),118.27229,P,ugm-3,48.86211,P,ugm-3,230.21042,P,ugm-3
07-01-2024,24:00,72.465,P,ugm-3 (Ref.eq),97.79316,P,ugm-3,40.40730,P,ugm-3,190.35473,P,ugm-3
08-01-2024,01:00,66.668,P,ugm-3 (Ref.eq),108.27373,P,ugm-3,35.39163,P,ugm-3,201.40903,P,ugm-3
08-01-2024,02:00,60.871,P,ugm-3 (Ref.eq),94.09106,P,ugm-3,28.42798,P,ugm-3,172.69893,P,ugm-3
08-01-2024,03:00,60.871,P,ugm-3 (Ref.eq),93.66272,P,ugm-3,27.93416,P,ugm-3,171.54833,P,ugm-3
08-01-2024,04:00,61.837,P,ugm-3 (Ref.eq),87.09491,P,ugm-3,26.33434,P,ugm-3,159.87800,P,ugm-3
08-01-2024,05:00,50.242,P,ugm-3 (Ref.eq),99.33817,P,ugm-3,26.84778,P,ugm-3,179.16418,P,ugm-3
08-01-2024,06:00,33.817,P,ugm-3 (Ref.eq),129.64291,P,ugm-3,44.15702,P,ugm-3,242.94005,P,ugm-3
08-01-2024,07:00,27.054,P,ugm-3 (Ref.eq),177.15247,P,ugm-3,66.59032,P,ugm-3,338.22033,P,ugm-3
08-01-2024,08:00,38.648,P,ugm-3 (Ref.eq),379.96939,P,ugm-3,94.87006,P,ugm-3,677.48167,P,ugm-3
08-01-2024,09:00,38.648,P,ugm-3 (Ref.eq),476.77324,P,ugm-3,121.71363,P,ugm-3,852.75573,P,ugm-3
08-01-2024,10:00,36.716,P,ugm-3 (Ref.eq),472.27571,P,ugm-3,137.04744,P,ugm-3,861.19344,P,ugm-3
08-01-2024,11:00,33.817,P,ugm-3 (Ref.eq),444.61237,P,ugm-3,117.38660,P,ugm-3,799.11606,P,ugm-3
08-01-2024,12:00,18.358,P,ugm-3 (Ref.eq),197.21286,P,ugm-3,91.16967,P,ugm-3,393.55850,P,ugm-3
08-01-2024,13:00,28.020,P,ugm-3 (Ref.eq),172.19092,P,ugm-3,86.14221,P,ugm-3,350.16460,P,ugm-3
08-01-2024,14:00,17.392,P,ugm-3 (Ref.eq),92.05646,P,ugm-3,61.13440,P,ugm-3,202.28567,P,ugm-3
08-01-2024,15:00,13.527,P,ugm-3 (Ref.eq),74.06637,P,ugm-3,56.99526,P,ugm-3,170.56211,P,ugm-3
08-01-2024,16:00,11.594,P,ugm-3 (Ref.eq),67.46286,P,ugm-3,77.09232,P,ugm-3,180.53393,P,ugm-3
08-01-2024,17:00,13.527,P,ugm-3 (Ref.eq),37.33659,P,ugm-3,56.49596,P,ugm-3,113.74460,P,ugm-3
08-01-2024,18:00,11.594,P,ugm-3 (Ref.eq),14.56341,P,ugm-3,45.28094,P,ugm-3,67.61119,P,ugm-3
08-01-2024,19:00,14.493,P,ugm-3 (Ref.eq),9.17352,P,ugm-3,24.23253,P,ugm-3,38.29840,P,ugm-3
08-01-2024,20:00,14.493,P,ugm-3 (Ref.eq),5.78253,P,ugm-3,26.58288,P,ugm-3,35.44930,P,ugm-3
08-01-2024,21:00,21.256,P,ugm-3 (Ref.eq),17.91871,P,ugm-3,42.65658,P,ugm-3,70.13154,P,ugm-3
08-01-2024,22:00,16.425,P,ugm-3 (Ref.eq),12.13618,P,ugm-3,26.53864,P,ugm-3,45.14718,P,ugm-3
08-01-2024,23:00,5.797,P,ugm-3 (Ref.eq),1.82043,P,ugm-3,13.31706,P,ugm-3,16.10834,P,ugm-3
08-01-2024,24:00,10.628,P,ugm-3 (Ref.eq),3.21252,P,ugm-3,13.64811,P,ugm-3,18.57390,P,ugm-3
09-01-2024,01:00,11.594,P,ugm-3 (Ref.eq),2.09507,P,ugm-3,15.35796,P,ugm-3,18.57035,P,ugm-3
09-01-2024,02:00,9.662,P,ugm-3 (Ref.eq),8.42788,P,ugm-3,20.12388,P,ugm-3,33.04645,P,ugm-3
09-01-2024,03:00,18.358,P,ugm-3 (Ref.eq),1.42845,P,ugm-3,7.78947,P,ugm-3,9.97974,P,ugm-3
09-01-2024,04:00,10.628,P,ugm-3 (Ref.eq),0.82136,P,ugm-3,8.39133,P,ugm-3,9.65073,P,ugm-3
09-01-2024,05:00,8.696,P,ugm-3 (Ref.eq),0.85707,P,ugm-3,9.32358,P,ugm-3,10.63774,P,ugm-3
09-01-2024,06:00,14.493,P,ugm-3 (Ref.eq),1.82128,P,ugm-3,11.95768,P,ugm-3,14.75027,P,ugm-3
09-01-2024,07:00,10.628,P,ugm-3 (Ref.eq),4.10681,P,ugm-3,15.03330,P,ugm-3,21.33031,P,ugm-3
09-01-2024,08:00,12.561,P,ugm-3 (Ref.eq),9.35638,P,ugm-3,24.91469,P,ugm-3,39.26093,P,ugm-3
09-01-2024,09:00,17.392,P,ugm-3 (Ref.eq),16.53436,P,ugm-3,37.48710,P,ugm-3,62.83943,P,ugm-3
09-01-2024,10:00,23.189,P,ugm-3 (Ref.eq),15.35588,P,ugm-3,32.16569,P,ugm-3,55.71105,P,ugm-3
09-01-2024,11:00,17.392,P,ugm-3 (Ref.eq),10.78483,P,ugm-3,21.95676,P,ugm-3,38.49326,P,ugm-3
09-01-2024,12:00,20.290,P,ugm-3 (Ref.eq),12.64182,P,ugm-3,20.26092,P,ugm-3,39.64477,P,ugm-3
09-01-2024,13:00,21.256,P,ugm-3 (Ref.eq),14.17741,P,ugm-3,27.88612,P,ugm-3,49.62450,P,ugm-3
09-01-2024,14:00,26.087,P,ugm-3 (Ref.eq),17.35572,P,ugm-3,25.26095,P,ugm-3,51.87269,P,ugm-3
09-01-2024,15:00,24.155,P,ugm-3 (Ref.eq),16.99861,P,ugm-3,24.27318,P,ugm-3,50.33734,P,ugm-3
09-01-2024,16:00,26.087,P,ugm-3 (Ref.eq),12.67753,P,ugm-3,34.18876,P,ugm-3,53.62736,P,ugm-3
09-01-2024,17:00,18.358,P,ugm-3 (Ref.eq),5.99951,P,ugm-3,27.15563,P,ugm-3,36.35475,P,ugm-3
09-01-2024,18:00,12.561,P,ugm-3 (Ref.eq),8.57073,P,ugm-3,31.93171,P,ugm-3,45.07331,P,ugm-3
09-01-2024,19:00,15.459,P,ugm-3 (Ref.eq),4.96388,P,ugm-3,23.31504,P,ugm-3,30.92621,P,ugm-3
09-01-2024,20:00,12.561,P,ugm-3 (Ref.eq),5.24957,P,ugm-3,25.83800,P,ugm-3,33.88723,P,ugm-3
09-01-2024,21:00,15.459,P,ugm-3 (Ref.eq),5.82095,P,ugm-3,29.01959,P,ugm-3,37.94492,P,ugm-3
09-01-2024,22:00,12.561,P,ugm-3 (Ref.eq),6.71373,P,ugm-3,29.35052,P,ugm-3,39.64477,P,ugm-3
09-01-2024,23:00,11.594,P,ugm-3 (Ref.eq),2.92833,P,ugm-3,19.36262,P,ugm-3,23.85266,P,ugm-3
09-01-2024,24:00,9.662,P,ugm-3 (Ref.eq),1.57130,P,ugm-3,13.93115,P,ugm-3,16.34044,P,ugm-3
10-01-2024,01:00,10.628,P,ugm-3 (Ref.eq),2.52479,P,ugm-3,13.83574,P,ugm-3,17.70703,P,ugm-3
10-01-2024,02:00,8.696,P,ugm-3 (Ref.eq),3.19171,P,ugm-3,14.64238,P,ugm-3,19.53626,P,ugm-3
10-01-2024,03:00,6.763,P,ugm-3 (Ref.eq),0.67883,P,ugm-3,8.06874,P,ugm-3,9.10961,P,ugm-3
10-01-2024,04:00,3.865,P,ugm-3 (Ref.eq),0.39301,P,ugm-3,4.55585,P,ugm-3,5.15845,P,ugm-3
10-01-2024,05:00,4.831,P,ugm-3 (Ref.eq),1.60776,P,ugm-3,4.44932,P,ugm-3,6.91452,P,ugm-3
10-01-2024,06:00,3.865,P,ugm-3 (Ref.eq),4.35883,P,ugm-3,11.59065,P,ugm-3,18.27409,P,ugm-3
10-01-2024,07:00,2.899,P,ugm-3 (Ref.eq),8.39610,P,ugm-3,25.70479,P,ugm-3,38.57863,P,ugm-3
10-01-2024,08:00,5.797,P,ugm-3 (Ref.eq),21.57976,P,ugm-3,38.36154,P,ugm-3,71.45004,P,ugm-3
10-01-2024,09:00,5.797,P,ugm-3 (Ref.eq),46.58941,P,ugm-3,52.09235,P,ugm-3,123.52845,P,ugm-3
10-01-2024,10:00,10.628,P,ugm-3 (Ref.eq),29.76149,P,ugm-3,49.30381,P,ugm-3,94.93746,P,ugm-3
10-01-2024,11:00,,,,,,,,,,,,
10-01-2024,12:00,11.594,P,ugm-3 (Ref.eq),25.86713,P,ugm-3,36.50710,P,ugm-3,76.16947,P,ugm-3
10-01-2024,13:00,16.425,P,ugm-3 (Ref.eq),10.00386,P,ugm-3,28.28829,P,ugm-3,43.62733,P,ugm-3
10-01-2024,14:00,11.594,P,ugm-3 (Ref.eq),11.03998,P,ugm-3,24.77890,P,ugm-3,41.70663,P,ugm-3
10-01-2024,15:00,15.459,P,ugm-3 (Ref.eq),12.14755,P,ugm-3,22.42213,P,ugm-3,41.04810,P,ugm-3
10-01-2024,16:00,17.392,P,ugm-3 (Ref.eq),13.04075,P,ugm-3,40.42420,P,ugm-3,60.41973,P,ugm-3
10-01-2024,17:00,7.730,P,ugm-3 (Ref.eq),18.43569,P,ugm-3,45.81648,P,ugm-3,74.08414,P,ugm-3
10-01-2024,18:00,9.662,P,ugm-3 (Ref.eq),17.61394,P,ugm-3,49.93009,P,ugm-3,76.93776,P,ugm-3
10-01-2024,19:00,6.763,P,ugm-3 (Ref.eq),9.93241,P,ugm-3,39.53791,P,ugm-3,54.76739,P,ugm-3
10-01-2024,20:00,10.628,P,ugm-3 (Ref.eq),9.96813,P,ugm-3,35.91612,P,ugm-3,51.20038,P,ugm-3
10-01-2024,21:00,7.730,P,ugm-3 (Ref.eq),6.32387,P,ugm-3,36.40034,P,ugm-3,46.09680,P,ugm-3
10-01-2024,22:00,6.763,P,ugm-3 (Ref.eq),5.03766,P,ugm-3,31.67749,P,ugm-3,39.40179,P,ugm-3
10-01-2024,23:00,5.797,P,ugm-3 (Ref.eq),2.50097,P,ugm-3,22.39652,P,ugm-3,26.23127,P,ugm-3
10-01-2024,24:00,6.763,P,ugm-3 (Ref.eq),1.28621,P,ugm-3,14.16172,P,ugm-3,16.13388,P,ugm-3
11-01-2024,01:00,5.797,P,ugm-3 (Ref.eq),1.23879,P,ugm-3,9.29955,P,ugm-3,11.19900,P,ugm-3
11-01-2024,02:00,3.865,P,ugm-3 (Ref.eq),0.76233,P,ugm-3,6.00432,P,ugm-3,7.17322,P,ugm-3
11-01-2024,03:00,2.899,P,ugm-3 (Ref.eq),1.66761,P,ugm-3,7.32451,P,ugm-3,9.88147,P,ugm-3
11-01-2024,04:00,1.932,P,ugm-3 (Ref.eq),0.78616,P,ugm-3,4.33918,P,ugm-3,5.54460,P,ugm-3
11-01-2024,05:00,1.932,P,ugm-3 (Ref.eq),3.18036,P,ugm-3,6.21272,P,ugm-3,11.08921,P,ugm-3
11-01-2024,06:00,3.865,P,ugm-3 (Ref.eq),2.39421,P,ugm-3,7.47304,P,ugm-3,11.14410,P,ugm-3
11-01-2024,07:00,5.797,P,ugm-3 (Ref.eq),9.75549,P,ugm-3,19.07796,P,ugm-3,34.03618,P,ugm-3
11-01-2024,08:00,6.763,P,ugm-3 (Ref.eq),23.19163,P,ugm-3,36.13555,P,ugm-3,71.69556,P,ugm-3
11-01-2024,09:00,11.594,P,ugm-3 (Ref.eq),45.23976,P,ugm-3,56.67698,P,ugm-3,126.04365,P,ugm-3
11-01-2024,10:00,19.324,P,ugm-3 (Ref.eq),72.61232,P,ugm-3,58.34947,P,ugm-3,169.68681,P,ugm-3
11-01-2024,11:00,26.087,P,ugm-3 (Ref.eq),51.45755,P,ugm-3,43.24548,P,ugm-3,122.14596,P,ugm-3
11-01-2024,12:00,41.547,P,ugm-3 (Ref.eq),37.55686,P,ugm-3,49.73736,P,ugm-3,107.32375,P,ugm-3
11-01-2024,13:00,43.479,P,ugm-3 (Ref.eq),45.23976,P,ugm-3,50.47361,P,ugm-3,119.84028,P,ugm-3
11-01-2024,14:00,26.087,P,ugm-3 (Ref.eq),43.63171,P,ugm-3,61.55809,P,ugm-3,128.45912,P,ugm-3
11-01-2024,15:00,19.324,P,ugm-3 (Ref.eq),24.87115,P,ugm-3,45.30830,P,ugm-3,83.44353,P,ugm-3
11-01-2024,16:00,15.459,P,ugm-3 (Ref.eq),17.25972,P,ugm-3,27.49928,P,ugm-3,53.96381,P,ugm-3
11-01-2024,17:00,21.256,P,ugm-3 (Ref.eq),30.62439,P,ugm-3,48.50925,P,ugm-3,95.46599,P,ugm-3